Weather History for Wahpeton, ND

Change the Weather History Date:

Thursday, February 28, 2013

  Actual Average (KFFM) Record (KFFM)
Temperature  
Mean Temperature 20 °F -  
Max Temperature 26 °F 29 °F 46 °F (2004)
Min Temperature 14 °F 13 °F -29 °F (1962)
Degree Days  
Heating Degree Days 44    
Moisture  
Dew Point 17 °F    
Average Humidity 81    
Maximum Humidity 93    
Minimum Humidity 69    
Precipitation  
Precipitation 0.00 in - - ()
Sea Level Pressure  
Sea Level Pressure 30.23 in    
Wind  
Wind Speed 9 mph (NNW)    
Max Wind Speed 16 mph    
Max Gust Speed -    
Visibility 10 miles    
Events      
Averages and records for this station are not official NWS values.
T = Trace of Precipitation, MM = Missing Value Source: NWS Daily Summary

Daily Weather History Graph

Daily Weather History Graph

Search for Another Location

Airport:

Trip Planner

Search our weather history database for the weather conditions in past years. The results will help you decide how hot, cold, wet, or windy it might be!

Date:

Astronomy

Feb. 28, 2013 Rise Set
Actual Time 7:06 AM CST 6:11 PM CST
Civil Twilight 6:36 AM CST 6:41 PM CST
Nautical Twilight 6:01 AM CST 7:16 PM CST
Astronomical Twilight 5:27 AM CST 7:51 PM CST
Moon 9:55 PM CST (2/28) 8:03 AM CST (2/28)
Length of Visible Light 12h 05m
Length of Day
11h 04m
Waning Gibbous, 90% of the Moon is Illuminated
Feb 28
Waning Gibbous
Mar 4
Last Quarter
Mar 11
New
Mar 19
First Quarter
Mar 27
Full

Hourly Weather History & Observations

Time (CST) Temp. Windchill Dew Point Humidity Pressure Visibility Wind Dir Wind Speed Gust Speed Precip Events Conditions
12:15 AM 19.4 °F 8.6 °F 15.8 °F 86% 30.16 in 10.0 mi North 9.2 mph - N/A   Clear
12:35 AM 17.6 °F 10.7 °F 14.0 °F 86% 30.17 in 10.0 mi NNW 4.6 mph - N/A   Scattered Clouds
12:55 AM 17.6 °F 9.3 °F 14.0 °F 86% 30.17 in 10.0 mi NNW 5.8 mph - N/A   Mostly Cloudy
1:15 AM 19.4 °F 9.5 °F 15.8 °F 86% 30.17 in 10.0 mi NNW 8.1 mph - N/A   Overcast
1:35 AM 19.4 °F 8.6 °F 17.6 °F 93% 30.18 in 10.0 mi NNW 9.2 mph - N/A   Overcast
1:55 AM 19.4 °F 8.6 °F 17.6 °F 93% 30.18 in 10.0 mi North 9.2 mph - N/A   Overcast
2:15 AM 21.2 °F 10.9 °F 17.6 °F 86% 30.18 in 10.0 mi NNW 9.2 mph - N/A   Overcast
2:35 AM 21.2 °F 11.7 °F 17.6 °F 86% 30.18 in 10.0 mi North 8.1 mph - N/A   Overcast
2:55 AM 21.2 °F 12.6 °F 17.6 °F 86% 30.18 in 10.0 mi NNW 6.9 mph - N/A   Overcast
3:15 AM 21.2 °F 10.9 °F 19.4 °F 93% 30.18 in 10.0 mi NNW 9.2 mph - N/A   Overcast
3:35 AM 21.2 °F 11.7 °F 19.4 °F 93% 30.18 in 10.0 mi NNW 8.1 mph - N/A   Overcast
3:55 AM 21.2 °F 12.6 °F 19.4 °F 93% 30.19 in 10.0 mi NNW 6.9 mph - N/A   Overcast
4:15 AM 21.2 °F 10.9 °F 19.4 °F 93% 30.19 in 10.0 mi NNW 9.2 mph - N/A   Overcast
4:55 AM 23.0 °F 13.9 °F 19.4 °F 86% 30.20 in 10.0 mi NNW 8.1 mph - N/A   Overcast
5:15 AM 23.0 °F 13.9 °F 19.4 °F 86% 30.20 in 10.0 mi NNW 8.1 mph - N/A   Overcast
5:35 AM 23.0 °F 12.4 °F 19.4 °F 86% 30.21 in 10.0 mi NNW 10.4 mph - N/A   Overcast
6:15 AM 23.0 °F 13.1 °F 19.4 °F 86% 30.21 in 10.0 mi NNW 9.2 mph - N/A   Overcast
6:35 AM 23.0 °F 13.1 °F 19.4 °F 86% 30.22 in 10.0 mi NNW 9.2 mph - N/A   Overcast
6:55 AM 23.0 °F 13.9 °F 19.4 °F 86% 30.22 in 10.0 mi NNW 8.1 mph - N/A   Overcast
7:15 AM 23.0 °F 14.7 °F 19.4 °F 86% 30.22 in 10.0 mi NNW 6.9 mph - N/A   Overcast
7:35 AM 23.0 °F 11.7 °F 19.4 °F 86% 30.22 in 10.0 mi North 11.5 mph - N/A   Overcast
7:55 AM 23.0 °F 13.1 °F 19.4 °F 86% 30.23 in 10.0 mi NNW 9.2 mph - N/A   Overcast
8:15 AM 23.0 °F 14.7 °F 19.4 °F 86% 30.23 in 10.0 mi NNW 6.9 mph - N/A   Overcast
8:35 AM 23.0 °F 13.1 °F 19.4 °F 86% 30.23 in 10.0 mi NNW 9.2 mph - N/A   Overcast
8:55 AM 23.0 °F 13.1 °F 19.4 °F 86% 30.23 in 10.0 mi NNW 9.2 mph - N/A   Overcast
9:15 AM 23.0 °F 13.1 °F 19.4 °F 86% 30.23 in 10.0 mi North 9.2 mph - N/A   Overcast
9:35 AM 23.0 °F 13.1 °F 19.4 °F 86% 30.24 in 10.0 mi NNW 9.2 mph - N/A   Overcast
9:55 AM 24.8 °F 16.1 °F 19.4 °F 80% 30.24 in 10.0 mi NNW 8.1 mph - N/A   Overcast
10:15 AM 24.8 °F 15.3 °F 19.4 °F 80% 30.24 in 10.0 mi North 9.2 mph - N/A   Overcast
10:35 AM 24.8 °F 14.6 °F 19.4 °F 80% 30.25 in 10.0 mi North 10.4 mph - N/A   Overcast
10:55 AM 26.6 °F 16.2 °F 19.4 °F 74% 30.25 in 10.0 mi North 11.5 mph - N/A   Overcast
11:15 AM 26.6 °F 16.8 °F 19.4 °F 74% 30.25 in 10.0 mi North 10.4 mph - N/A   Overcast
11:35 AM 26.6 °F 15.7 °F 19.4 °F 74% 30.24 in 10.0 mi North 12.7 mph - N/A   Overcast
11:55 AM 26.6 °F 14.3 °F 19.4 °F 74% 30.24 in 10.0 mi North 16.1 mph - N/A   Overcast
12:15 PM 26.6 °F 14.7 °F 19.4 °F 74% 30.25 in 10.0 mi North 15.0 mph - N/A   Overcast
12:35 PM 26.6 °F 15.7 °F 19.4 °F 74% 30.24 in 10.0 mi North 12.7 mph - N/A   Overcast
12:55 PM 26.6 °F 16.2 °F 19.4 °F 74% 30.24 in 10.0 mi North 11.5 mph - N/A   Overcast
1:15 PM 26.6 °F 15.7 °F 17.6 °F 69% 30.24 in 10.0 mi North 12.7 mph - N/A   Overcast
1:35 PM 26.6 °F 14.3 °F 17.6 °F 69% 30.24 in 10.0 mi North 16.1 mph - N/A   Overcast
1:55 PM 26.6 °F 14.7 °F 17.6 °F 69% 30.23 in 10.0 mi North 15.0 mph - N/A   Overcast
2:15 PM 26.6 °F 14.7 °F 17.6 °F 69% 30.23 in 10.0 mi North 15.0 mph - N/A   Overcast
2:35 PM 26.6 °F 14.3 °F 17.6 °F 69% 30.23 in 10.0 mi North 16.1 mph - N/A   Overcast
2:55 PM 26.6 °F 14.7 °F 17.6 °F 69% 30.23 in 10.0 mi North 15.0 mph - N/A   Overcast
3:35 PM 26.6 °F 15.7 °F 17.6 °F 69% 30.23 in 10.0 mi North 12.7 mph - N/A   Mostly Cloudy
3:55 PM 26.6 °F 14.7 °F 17.6 °F 69% 30.23 in 10.0 mi NNE 15.0 mph - N/A   Scattered Clouds
4:15 PM 26.6 °F 16.2 °F 17.6 °F 69% 30.24 in 10.0 mi NNE 11.5 mph - N/A   Mostly Cloudy
4:35 PM 24.8 °F 14.6 °F 17.6 °F 74% 30.24 in 10.0 mi North 10.4 mph - N/A   Overcast
4:55 PM 24.8 °F 14.0 °F 17.6 °F 74% 30.24 in 10.0 mi North 11.5 mph - N/A   Overcast
5:15 PM 23.0 °F 12.4 °F 17.6 °F 80% 30.24 in 10.0 mi North 10.4 mph - N/A   Overcast
5:35 PM 23.0 °F 11.7 °F 15.8 °F 74% 30.25 in 10.0 mi North 11.5 mph - N/A   Overcast
5:55 PM 23.0 °F 13.9 °F 15.8 °F 74% 30.26 in 10.0 mi North 8.1 mph - N/A   Overcast
6:15 PM 23.0 °F 13.9 °F 15.8 °F 74% 30.26 in 10.0 mi NNW 8.1 mph - N/A   Overcast
6:35 PM 23.0 °F 15.8 °F 17.6 °F 80% 30.27 in 10.0 mi NNW 5.8 mph - N/A   Overcast
6:55 PM 21.2 °F 14.9 °F 17.6 °F 86% 30.27 in 10.0 mi NW 4.6 mph - N/A   Overcast
7:15 PM 21.2 °F 12.6 °F 17.6 °F 86% 30.28 in 10.0 mi NW 6.9 mph - N/A   Overcast
7:35 PM 21.2 °F 12.6 °F 17.6 °F 86% 30.28 in 10.0 mi North 6.9 mph - N/A   Overcast
7:55 PM 21.2 °F 13.6 °F 15.8 °F 80% 30.28 in 10.0 mi North 5.8 mph - N/A   Overcast
8:15 PM 21.2 °F 14.9 °F 15.8 °F 80% 30.28 in 10.0 mi North 4.6 mph - N/A   Overcast
8:35 PM 19.4 °F 11.5 °F 14.0 °F 80% 30.28 in 10.0 mi North 5.8 mph - N/A   Overcast
8:55 PM 17.6 °F 9.3 °F 14.0 °F 86% 30.28 in 10.0 mi NW 5.8 mph - N/A   Mostly Cloudy
9:15 PM 19.4 °F 14.3 °F 14.0 °F 80% 30.28 in 10.0 mi North 3.5 mph - N/A   Overcast
9:35 PM 17.6 °F - 14.0 °F 86% 30.28 in 10.0 mi Calm Calm - N/A   Overcast
9:55 PM 17.6 °F - 12.2 °F 79% 30.28 in 10.0 mi Calm Calm - N/A   Overcast
10:35 PM 17.6 °F 10.7 °F 12.2 °F 79% 30.28 in 10.0 mi NNW 4.6 mph - N/A   Overcast
10:55 PM 17.6 °F 10.7 °F 14.0 °F 86% 30.28 in 10.0 mi North 4.6 mph - N/A   Overcast
11:35 PM 15.8 °F 8.6 °F 12.2 °F 86% 30.28 in 10.0 mi North 4.6 mph - N/A   Scattered Clouds
11:55 PM 14.0 °F 5.1 °F 10.4 °F 86% 30.29 in 10.0 mi NNW 5.8 mph - N/A   Scattered Clouds